Wrangell, AK

9:15 AM AKDT on August 25, 2016 (GMT -0800)
Wrangell

Weather History for PAWG - November, 2011

Change the Weather History Date:

Monday, November 14, 2011

  Actual Average Record
Temperature  
Mean Temperature 34 °F -  
Max Temperature 35 °F 41 °F 59 °F (1976)
Min Temperature 32 °F 32 °F 12 °F (1955)
Degree Days  
Heating Degree Days 32    
Moisture  
Dew Point 27 °F    
Average Humidity 76    
Maximum Humidity 93    
Minimum Humidity 65    
Precipitation  
Precipitation 0.00 in - - ()
Sea Level Pressure  
Sea Level Pressure 29.75 in    
Wind  
Wind Speed 6 mph (SSW)    
Max Wind Speed 16 mph    
Max Gust Speed 21 mph    
Visibility 8 miles    
Events      
Averages and records for this station are not official NWS values.
T = Trace of Precipitation, MM = Missing Value Source: NWS Daily Summary

Daily Weather History Graph

Daily Weather History Graph

Search for Another Location

Airport or City:

Trip Planner

Search our weather history database for the weather conditions in past years. The results will help you decide how hot, cold, wet, or windy it might be!

Date:

Astronomy

Nov. 14, 2011 Rise Set
Actual Time 7:26 AM AKST 3:41 PM AKST
Civil Twilight 6:43 AM AKST 4:23 PM AKST
Nautical Twilight 5:57 AM AKST 5:09 PM AKST
Astronomical Twilight 5:12 AM AKST 5:54 PM AKST
Moon 6:40 PM AKST (11/14) 11:06 AM AKST (11/14)
Length of Visible Light 9h 40m
Length of Day
8h 14m
Waning Gibbous, 85% of the Moon is Illuminated
Nov 14
Waning Gibbous
Nov 18
Last Quarter
Nov 24
New
Dec 2
First Quarter
Dec 10
Full

Hourly Weather History & Observations

Time (AKST) Temp. Windchill Dew Point Humidity Pressure Visibility Wind Dir Wind Speed Gust Speed Precip Events Conditions
12:16 AM 32.0 °F 27.5 °F 28.4 °F 87% 29.64 in 0.8 mi East 4.6 mph - N/A   Overcast
12:36 AM 32.0 °F 27.5 °F 30.2 °F 93% 29.65 in 1.0 mi East 4.6 mph - N/A   Overcast
12:56 AM 32.0 °F 26.4 °F 30.2 °F 93% 29.65 in 1.8 mi ESE 5.8 mph - N/A   Overcast
1:16 AM 32.0 °F 26.4 °F 28.4 °F 87% 29.66 in 4.0 mi ESE 5.8 mph - N/A   Overcast
1:36 AM 32.0 °F 24.2 °F 28.4 °F 87% 29.66 in 4.0 mi ESE 9.2 mph - N/A   Mostly Cloudy
1:56 AM 32.0 °F 26.4 °F 30.2 °F 93% 29.66 in 2.0 mi ESE 5.8 mph - N/A   Overcast
2:16 AM 32.0 °F 27.5 °F 28.4 °F 87% 29.67 in 0.8 mi ENE 4.6 mph - N/A   Overcast
2:36 AM 32.0 °F 26.4 °F 28.4 °F 87% 29.68 in 0.5 mi NE 5.8 mph - N/A   Overcast
2:56 AM 32.0 °F 27.5 °F 28.4 °F 87% 29.69 in 1.2 mi East 4.6 mph - N/A   Overcast
3:16 AM 32.0 °F 26.4 °F 30.2 °F 93% 29.69 in 3.0 mi ESE 5.8 mph - N/A   Overcast
3:36 AM 32.0 °F 28.7 °F 28.4 °F 87% 29.70 in 7.0 mi SE 3.5 mph - N/A   Overcast
3:56 AM 32.0 °F - 28.4 °F 87% 29.70 in 10.0 mi Calm Calm - N/A   Overcast
4:16 AM 32.0 °F 25.6 °F 28.4 °F 87% 29.70 in 7.0 mi SE 6.9 mph - N/A   Mostly Cloudy
4:36 AM 32.0 °F 27.5 °F 28.4 °F 87% 29.71 in 10.0 mi SSE 4.6 mph - N/A   Mostly Cloudy
4:56 AM 33.8 °F 27.0 °F 28.4 °F 81% 29.70 in 10.0 mi ESE 8.1 mph - N/A   Overcast
5:16 AM 33.8 °F 27.7 °F 30.2 °F 87% 29.70 in 10.0 mi SE 6.9 mph - N/A   Overcast
5:36 AM 33.8 °F 29.6 °F 28.4 °F 81% 29.71 in 10.0 mi South 4.6 mph - N/A   Overcast
5:56 AM 33.8 °F - 26.6 °F 75% 29.71 in 10.0 mi Calm Calm - N/A   Mostly Cloudy
6:16 AM 33.8 °F 30.8 °F 28.4 °F 81% 29.71 in 10.0 mi ESE 3.5 mph - N/A   Mostly Cloudy
6:36 AM 33.8 °F 29.6 °F 26.6 °F 75% 29.71 in 10.0 mi SE 4.6 mph - N/A   Mostly Cloudy
6:56 AM 33.8 °F - 26.6 °F 75% 29.72 in 10.0 mi Calm Calm - N/A   Mostly Cloudy
7:16 AM 33.8 °F 30.8 °F 26.6 °F 75% 29.73 in 10.0 mi SSW 3.5 mph - N/A   Mostly Cloudy
7:36 AM 33.8 °F 29.6 °F 26.6 °F 75% 29.73 in 10.0 mi SSW 4.6 mph - N/A   Mostly Cloudy
7:56 AM 33.8 °F 28.6 °F 26.6 °F 75% 29.73 in 10.0 mi South 5.8 mph - N/A   Overcast
8:16 AM 33.8 °F - 26.6 °F 75% 29.74 in 10.0 mi Calm Calm - N/A   Overcast
8:36 AM 33.8 °F 29.6 °F 26.6 °F 75% 29.74 in 10.0 mi South 4.6 mph - N/A   Overcast
8:56 AM 33.8 °F 25.3 °F 26.6 °F 75% 29.74 in 10.0 mi South 11.5 mph 16.1 mph N/A   Overcast
9:16 AM 33.8 °F 27.7 °F 26.6 °F 75% 29.74 in 10.0 mi SSW 6.9 mph - N/A   Overcast
9:36 AM 33.8 °F 25.8 °F 26.6 °F 75% 29.74 in 10.0 mi South 10.4 mph 16.1 mph N/A   Overcast
9:56 AM 33.8 °F 25.8 °F 24.8 °F 70% 29.75 in 10.0 mi South 10.4 mph 18.4 mph N/A   Overcast
10:16 AM 33.8 °F 27.7 °F 26.6 °F 75% 29.75 in 10.0 mi SSW 6.9 mph - N/A   Overcast
10:36 AM 33.8 °F 28.6 °F 26.6 °F 75% 29.76 in 10.0 mi West 5.8 mph - N/A   Overcast
10:56 AM 33.8 °F 29.6 °F 26.6 °F 75% 29.76 in 10.0 mi West 4.6 mph - N/A   Mostly Cloudy
11:16 AM 35.6 °F 32.8 °F 24.8 °F 65% 29.77 in 10.0 mi South 3.5 mph - N/A   Mostly Cloudy
11:36 AM 35.6 °F 31.7 °F 26.6 °F 70% 29.77 in 10.0 mi SSW 4.6 mph - N/A   Mostly Cloudy
11:56 AM 35.6 °F 28.0 °F 26.6 °F 70% 29.77 in 10.0 mi SSW 10.4 mph 16.1 mph N/A   Mostly Cloudy
12:16 PM 35.6 °F 29.2 °F 26.6 °F 70% 29.77 in 10.0 mi SSW 8.1 mph - N/A   Mostly Cloudy
12:36 PM 33.8 °F 27.7 °F 26.6 °F 75% 29.77 in 10.0 mi SSE 6.9 mph - N/A   Mostly Cloudy
12:56 PM 33.8 °F 24.8 °F 26.6 °F 75% 29.77 in 7.0 mi WNW 12.7 mph - N/A   Overcast
1:16 PM 35.6 °F 28.0 °F 26.6 °F 70% 29.78 in 7.0 mi West 10.4 mph - N/A   Overcast
1:36 PM 35.6 °F 28.0 °F 26.6 °F 70% 29.78 in 7.0 mi WSW 10.4 mph - N/A   Overcast
1:56 PM 35.6 °F 27.1 °F 24.8 °F 65% 29.78 in 10.0 mi West 12.7 mph 18.4 mph N/A   Overcast
2:16 PM 35.6 °F 25.9 °F 24.8 °F 65% 29.78 in 10.0 mi WNW 16.1 mph - N/A   Overcast
2:36 PM 35.6 °F 26.6 °F 26.6 °F 70% 29.79 in 10.0 mi West 13.8 mph 18.4 mph N/A   Overcast
2:56 PM 35.6 °F 26.6 °F 24.8 °F 65% 29.80 in 10.0 mi West 13.8 mph 20.7 mph N/A   Mostly Cloudy
3:16 PM 35.6 °F 28.6 °F 24.8 °F 65% 29.81 in 10.0 mi West 9.2 mph 19.6 mph N/A   Mostly Cloudy
3:36 PM 35.6 °F 29.2 °F 26.6 °F 70% 29.82 in 10.0 mi West 8.1 mph - N/A   Mostly Cloudy
3:56 PM 35.6 °F 26.2 °F 24.8 °F 65% 29.83 in 10.0 mi West 15.0 mph 19.6 mph N/A   Mostly Cloudy
4:16 PM 35.6 °F 28.0 °F 24.8 °F 65% 29.84 in 10.0 mi WSW 10.4 mph - N/A   Mostly Cloudy
4:36 PM 35.6 °F 27.1 °F 26.6 °F 70% 29.85 in 10.0 mi WNW 12.7 mph 16.1 mph N/A   Mostly Cloudy
4:56 PM 35.6 °F 28.6 °F 26.6 °F 70% 29.87 in 10.0 mi West 9.2 mph - N/A   Mostly Cloudy
5:16 PM 35.6 °F 30.7 °F 24.8 °F 65% 29.87 in 10.0 mi West 5.8 mph - N/A   Mostly Cloudy
5:36 PM 35.6 °F 29.2 °F 24.8 °F 65% 29.88 in 10.0 mi WSW 8.1 mph - N/A   Mostly Cloudy
5:56 PM 33.8 °F 29.6 °F 24.8 °F 70% 29.88 in 10.0 mi SSE 4.6 mph - N/A   Overcast
6:16 PM 33.8 °F 29.6 °F 24.8 °F 70% 29.88 in 10.0 mi ESE 4.6 mph - N/A   Overcast
6:36 PM 33.8 °F 29.6 °F 24.8 °F 70% 29.88 in 10.0 mi SE 4.6 mph - N/A   Overcast
6:56 PM 33.8 °F 28.6 °F 28.4 °F 81% 29.89 in 10.0 mi SSE 5.8 mph - N/A   Overcast
7:16 PM 33.8 °F 27.0 °F 28.4 °F 81% 29.89 in 10.0 mi SE 8.1 mph - N/A   Overcast
7:36 PM 33.8 °F 27.0 °F 26.6 °F 75% 29.88 in 10.0 mi SE 8.1 mph - N/A   Overcast
7:56 PM 33.8 °F 29.6 °F 26.6 °F 75% 29.89 in 7.0 mi South 4.6 mph - N/A   Overcast
8:16 PM 32.0 °F 27.5 °F 28.4 °F 87% 29.89 in 7.0 mi ESE 4.6 mph - N/A   Overcast
8:36 PM 32.0 °F 23.0 °F 28.4 °F 87% 29.87 in 7.0 mi ESE 11.5 mph - N/A   Overcast
8:56 PM 32.0 °F 24.2 °F 28.4 °F 87% 29.86 in 2.0 mi ESE 9.2 mph - N/A   Overcast
9:16 PM 33.8 °F 27.0 °F 28.4 °F 81% 29.86 in 2.0 mi SSE 8.1 mph - N/A   Overcast
9:36 PM 33.8 °F 29.6 °F 28.4 °F 81% 29.85 in 2.0 mi SE 4.6 mph - N/A   Overcast
9:56 PM 33.8 °F 27.0 °F 26.6 °F 75% 29.85 in 7.0 mi East 8.1 mph - N/A   Overcast
10:16 PM 33.8 °F 29.6 °F 28.4 °F 81% 29.85 in 7.0 mi East 4.6 mph - N/A   Overcast
10:36 PM 33.8 °F 24.8 °F 30.2 °F 87% 29.83 in 7.0 mi East 12.7 mph - N/A   Overcast
10:56 PM 33.8 °F - 28.4 °F 81% 29.84 in 7.0 mi Calm Calm - N/A   Overcast
11:16 PM 35.6 °F - 28.4 °F 75% 29.84 in 10.0 mi Calm Calm - N/A   Overcast
11:36 PM 35.6 °F 30.7 °F 28.4 °F 75% 29.84 in 10.0 mi ENE 5.8 mph - N/A   Overcast
11:56 PM 33.8 °F 30.8 °F 28.4 °F 81% 29.86 in 1.5 mi NW 3.5 mph - N/A   Overcast